Weather in Ufimsky

Russia / Republic of Bashkortostan     52°12′38″N   58°17′24″E
temp.,
°C
wind,
m/s
gust,
m/s
humid.,
%
clouds,
%
prec.,
mm/h
press.,
hPa
HPBL,
m
3 march, wed
wed323:00−12sw71589100 0.0 1012614
02:00−9sw81689100 0.0 1010623
05:00−8sw71591100 0.0 1008586
08:00−6sw71493100 0.1 1006633
11:00−3sw91491100 0.4 1005995
14:00−2sw91390100 0.1 1004993
17:00−2sw71292100 0.3 1004832
20:00−4sw51195100 0.1 1003381
4 march, thu
thu423:00−5sw41095100 0.1 1003228
02:00−4wsw5995100 0.1 1002305
05:00−9w599290 0.1 1004148
08:00−12w512920 0.0 1006229
11:00−9w713860 0.0 1008549
14:00−7w812830 0.0 1009871
17:00−8w8158420 0.0 1009555
20:00−10sw8169020 0.0 1010523
5 march, fri
fri523:00−8sw9188953 0.1 1009868
02:00−5wsw101890100 0.1 1007878
05:00−4wsw10198796 0.2 1007801
08:00−4wsw10188891 0.1 1008911
11:00−3wsw11178995 0.1 10091049
14:00−2sw111889100 0.1 10081015
17:00−2sw121992100 0.4 10081128
20:00−1sw111893100 0.4 10071024
6 march, sat
sat623:000wsw111795100 1.3 10061133
02:00−1wsw11189498 0.7 10071025
05:00−3wnw6128897 1.3 1010574
08:00−10wnw349193 0.0 101248
11:00−8wnw238596 0.0 1014176
14:00−5ssw127498 0.0 1013307
17:00−6ese469699 0.8 1009314
20:00−7e5796100 4.1 1006245
7 march, sun
sun723:00−5ese1798100 7.4 1004286
02:000sw81596100 1.3 1003960
05:00−7wnw4991100 1.4 1005266
08:00−13nw3593100 0.0 100988
11:00−10wnw479099 0.0 1011324
14:00−7wnw578083 0.0 1012879
17:00−9w598577 0.0 1013358
20:00−16w510928 0.0 1015148